Location: Marseilles
(40.7010°N, 83.3930°W)
Time: 18:52:15
(UTC-04:00)

Cosmos 1459 Rocket - Visible Passes

Search period start: 19 April 2014 00:00
Search period end: 29 April 2014 00:00
Orbit: 939 x 999 km, 83.0° (Epoch: 17 April)

Date Brightness Start Highest point End Pass type
(mag) Time Alt. Az. Time Alt. Az. Time Alt. Az.
19 Apr 5.3 01:01:50 35° NNE 01:01:50 35° NNE 01:05:29 10° NNE visible
19 Apr 5.8 02:46:21 21° NW 02:46:21 21° NW 02:49:45 10° NNW visible
19 Apr 6.2 23:40:33 12° ENE 23:40:33 12° ENE 23:41:28 10° NE visible
20 Apr 5.0 01:25:04 42° N 01:25:04 42° N 01:29:09 10° N visible
20 Apr 6.2 03:09:35 12° WNW 03:09:35 12° WNW 03:11:35 10° NW visible
21 Apr 5.8 00:03:47 21° NE 00:03:47 21° NE 00:06:34 10° NNE visible
21 Apr 5.2 01:48:18 38° NNW 01:48:18 38° NNW 01:52:33 10° N visible
22 Apr 5.2 00:27:00 33° NE 00:27:00 33° NE 00:30:46 10° NNE visible
22 Apr 5.6 02:11:31 26° NW 02:11:31 26° NW 02:15:36 10° NNW visible
23 Apr 4.8 00:50:13 46° NNE 00:50:13 46° NNE 00:54:35 10° N visible
23 Apr 6.0 02:34:43 16° WNW 02:34:43 16° WNW 02:38:04 10° NNW visible
23 Apr 5.8 23:28:53 18° ENE 23:28:53 18° ENE 23:31:30 10° NE visible
24 Apr 4.8 01:13:24 48° NNW 01:13:24 48° NNW 01:18:06 10° N visible
24 Apr 5.2 23:52:04 30° ENE 23:52:04 30° ENE 23:56:00 10° NNE visible
25 Apr 5.2 01:36:35 34° NW 01:36:35 34° NW 01:41:20 10° N visible
26 Apr 4.7 00:15:14 47° NE 00:15:14 47° NE 00:19:58 10° NNE visible
26 Apr 5.8 01:59:45 21° WNW 01:59:45 21° WNW 02:04:08 10° NNW visible
26 Apr 5.9 22:53:52 14° ENE 22:53:52 14° ENE 22:56:09 10° NE visible
27 Apr 4.4 00:38:23 61° N 00:38:23 61° N 00:43:37 10° N visible
27 Apr 6.3 02:22:53 12° WNW 02:23:30 12° WNW 02:25:47 10° NW visible
27 Apr 5.3 23:17:00 25° ENE 23:17:00 25° ENE 23:21:06 10° NNE visible
28 Apr 4.8 01:01:31 45° WNW 01:01:31 45° WNW 01:06:59 10° N visible
28 Apr 4.6 23:40:07 44° ENE 23:40:07 44° ENE 23:45:16 10° NNE visible
